TimeEDT,TemperatureF,Dew PointF,Humidity,Sea Level PressureIn,VisibilityMPH,Wind Direction,Wind SpeedMPH,Gust SpeedMPH,PrecipitationIn,Events,Conditions,WindDirDegrees,DateUTC
12:15 AM,68.0,62.6,83,30.13,10.0,Calm,Calm,-,N/A,,Clear,0,2013-04-25 04:15:00
12:35 AM,66.2,62.6,88,30.12,10.0,South,5.8,-,N/A,,Clear,170,2013-04-25 04:35:00
12:55 AM,68.0,62.6,83,30.13,10.0,South,3.5,-,N/A,,Clear,190,2013-04-25 04:55:00
1:15 AM,66.2,62.6,88,30.13,10.0,Calm,Calm,-,N/A,,Clear,0,2013-04-25 05:15:00
1:35 AM,66.2,62.6,88,30.12,10.0,South,4.6,-,N/A,,Clear,190,2013-04-25 05:35:00
1:55 AM,68.0,62.6,83,30.12,10.0,South,4.6,-,N/A,,Scattered Clouds,180,2013-04-25 05:55:00
2:15 AM,66.2,62.6,88,30.12,10.0,SSW,3.5,-,N/A,,Clear,200,2013-04-25 06:15:00
2:35 AM,66.2,60.8,83,30.11,10.0,SSW,4.6,-,N/A,,Scattered Clouds,210,2013-04-25 06:35:00
2:55 AM,66.2,60.8,83,30.11,10.0,South,3.5,-,N/A,,Mostly Cloudy,190,2013-04-25 06:55:00
3:15 AM,66.2,60.8,83,30.11,10.0,South,3.5,-,N/A,,Overcast,190,2013-04-25 07:15:00
3:35 AM,66.2,60.8,83,30.10,10.0,SSW,3.5,-,N/A,,Overcast,200,2013-04-25 07:35:00
3:55 AM,64.4,59.0,83,30.11,10.0,SSW,3.5,-,N/A,,Scattered Clouds,200,2013-04-25 07:55:00
4:15 AM,64.4,57.2,77,30.11,10.0,SSW,3.5,-,N/A,,Clear,200,2013-04-25 08:15:00
4:35 AM,62.6,57.2,82,30.11,10.0,South,3.5,-,N/A,,Clear,190,2013-04-25 08:35:00
4:55 AM,62.6,57.2,82,30.11,10.0,SSW,3.5,-,N/A,,Clear,200,2013-04-25 08:55:00
5:15 AM,62.6,57.2,82,30.12,10.0,South,4.6,-,N/A,,Clear,190,2013-04-25 09:15:00
5:35 AM,62.6,57.2,82,30.12,10.0,South,3.5,-,N/A,,Clear,190,2013-04-25 09:35:00
5:55 AM,62.6,57.2,82,30.13,10.0,South,3.5,-,N/A,,Clear,190,2013-04-25 09:55:00
6:15 AM,62.6,57.2,82,30.14,10.0,Calm,Calm,-,N/A,,Clear,0,2013-04-25 10:15:00
6:35 AM,60.8,57.2,88,30.14,10.0,Calm,Calm,-,N/A,,Clear,0,2013-04-25 10:35:00
6:55 AM,60.8,57.2,88,30.15,10.0,SSW,3.5,-,N/A,,Clear,200,2013-04-25 10:55:00
7:15 AM,60.8,57.2,88,30.16,10.0,Calm,Calm,-,N/A,,Scattered Clouds,0,2013-04-25 11:15:00
7:35 AM,62.6,59.0,88,30.17,10.0,Calm,Calm,-,N/A,,Scattered Clouds,0,2013-04-25 11:35:00
7:55 AM,64.4,60.8,88,30.18,10.0,Calm,Calm,-,N/A,,Scattered Clouds,0,2013-04-25 11:55:00
8:15 AM,66.2,62.6,88,30.18,10.0,Calm,Calm,-,N/A,,Clear,0,2013-04-25 12:15:00
8:35 AM,66.2,62.6,88,30.19,10.0,WSW,4.6,-,N/A,,Mostly Cloudy,240,2013-04-25 12:35:00
8:55 AM,66.2,62.6,88,30.19,10.0,West,4.6,-,N/A,,Mostly Cloudy,270,2013-04-25 12:55:00
9:15 AM,69.8,64.4,83,30.19,10.0,NW,5.8,-,N/A,,Scattered Clouds,310,2013-04-25 13:15:00
9:35 AM,71.6,64.4,78,30.19,10.0,NNW,9.2,-,N/A,,Mostly Cloudy,330,2013-04-25 13:35:00
9:55 AM,71.6,64.4,78,30.19,10.0,NNW,6.9,-,N/A,,Mostly Cloudy,340,2013-04-25 13:55:00
10:15 AM,73.4,64.4,73,30.20,10.0,West,5.8,-,N/A,,Mostly Cloudy,260,2013-04-25 14:15:00
10:35 AM,75.2,64.4,69,30.20,10.0,North,-9999.0,-,N/A,,Scattered Clouds,0,2013-04-25 14:35:00
10:55 AM,75.2,64.4,69,30.20,10.0,NNW,5.8,-,N/A,,Scattered Clouds,340,2013-04-25 14:55:00
11:15 AM,77.0,64.4,65,30.20,10.0,WNW,3.5,-,N/A,,Scattered Clouds,300,2013-04-25 15:15:00
11:55 AM,78.8,62.6,57,30.21,10.0,WNW,6.9,-,N/A,,Scattered Clouds,300,2013-04-25 15:55:00
12:35 PM,78.8,64.4,61,30.20,10.0,NNW,4.6,-,N/A,,Mostly Cloudy,340,2013-04-25 16:35:00
12:55 PM,78.8,64.4,61,30.20,10.0,NNW,5.8,-,N/A,,Mostly Cloudy,330,2013-04-25 16:55:00
1:35 PM,78.8,62.6,57,30.19,10.0,North,-9999.0,-,N/A,,Mostly Cloudy,0,2013-04-25 17:35:00
1:55 PM,82.4,62.6,51,30.18,10.0,West,5.8,-,N/A,,Scattered Clouds,280,2013-04-25 17:55:00
2:15 PM,80.6,62.6,54,30.18,10.0,West,8.1,-,N/A,,Mostly Cloudy,280,2013-04-25 18:15:00
2:35 PM,82.4,62.6,51,30.17,10.0,WNW,9.2,-,N/A,,Mostly Cloudy,290,2013-04-25 18:35:00
2:55 PM,82.4,62.6,51,30.17,10.0,North,-9999.0,-,N/A,,Mostly Cloudy,0,2013-04-25 18:55:00
3:15 PM,82.4,62.6,51,30.16,10.0,NNW,5.8,-,N/A,,Scattered Clouds,330,2013-04-25 19:15:00
3:35 PM,84.2,62.6,48,30.15,10.0,WNW,6.9,-,N/A,,Scattered Clouds,300,2013-04-25 19:35:00
3:55 PM,82.4,62.6,51,30.15,10.0,NNW,5.8,9.2,N/A,,Mostly Cloudy,330,2013-04-25 19:55:00
4:15 PM,82.4,62.6,51,30.14,10.0,North,-9999.0,-,N/A,,Overcast,0,2013-04-25 20:15:00
4:35 PM,82.4,62.6,51,30.14,10.0,North,-9999.0,-,N/A,,Mostly Cloudy,0,2013-04-25 20:35:00
4:55 PM,80.6,62.6,54,30.14,10.0,West,8.1,17.3,N/A,,Scattered Clouds,280,2013-04-25 20:55:00
5:15 PM,80.6,62.6,54,30.14,10.0,WNW,9.2,-,N/A,,Scattered Clouds,300,2013-04-25 21:15:00
5:35 PM,82.4,62.6,51,30.15,10.0,West,9.2,-,N/A,,Scattered Clouds,280,2013-04-25 21:35:00
5:55 PM,80.6,62.6,54,30.15,10.0,Calm,Calm,-,N/A,,Scattered Clouds,290,2013-04-25 21:55:00
6:15 PM,80.6,62.6,54,30.15,10.0,WNW,9.2,-,N/A,,Scattered Clouds,290,2013-04-25 22:15:00
6:35 PM,80.6,62.6,54,30.15,10.0,WNW,8.1,-,N/A,,Scattered Clouds,300,2013-04-25 22:35:00
6:55 PM,80.6,62.6,54,30.16,10.0,WNW,9.2,-,N/A,,Clear,290,2013-04-25 22:55:00
7:15 PM,78.8,62.6,57,30.15,10.0,WNW,8.1,-,N/A,,Clear,290,2013-04-25 23:15:00
7:35 PM,78.8,62.6,57,30.15,10.0,WNW,4.6,-,N/A,,Clear,290,2013-04-25 23:35:00
7:55 PM,77.0,62.6,61,30.16,10.0,West,3.5,-,N/A,,Clear,280,2013-04-25 23:55:00
8:15 PM,75.2,62.6,65,30.17,10.0,WNW,3.5,-,N/A,,Clear,300,2013-04-26 00:15:00
8:35 PM,73.4,62.6,69,30.17,10.0,WNW,4.6,-,N/A,,Clear,300,2013-04-26 00:35:00
8:55 PM,73.4,60.8,65,30.18,10.0,WNW,3.5,-,N/A,,Clear,300,2013-04-26 00:55:00
9:15 PM,71.6,60.8,69,30.19,10.0,Calm,Calm,-,N/A,,Clear,0,2013-04-26 01:15:00
9:35 PM,71.6,60.8,69,30.20,10.0,NW,5.8,-,N/A,,Clear,320,2013-04-26 01:35:00
9:55 PM,69.8,60.8,73,30.21,10.0,NNW,4.6,-,N/A,,Clear,330,2013-04-26 01:55:00
10:15 PM,69.8,60.8,73,30.21,10.0,NNW,5.8,-,N/A,,Clear,330,2013-04-26 02:15:00
10:35 PM,68.0,60.8,78,30.21,10.0,NNW,4.6,-,N/A,,Clear,340,2013-04-26 02:35:00
10:55 PM,68.0,60.8,78,30.22,10.0,NNW,3.5,-,N/A,,Clear,330,2013-04-26 02:55:00
11:15 PM,66.2,59.0,78,30.22,10.0,North,3.5,-,N/A,,Clear,350,2013-04-26 03:15:00
11:35 PM,66.2,59.0,78,30.22,-9999.0,North,3.5,-,N/A,,Clear,350,2013-04-26 03:35:00
11:55 PM,64.4,57.2,77,30.22,10.0,North,3.5,-,N/A,,Clear,350,2013-04-26 03:55:00